Ionia, MI

2:00 AM EDT on March 25, 2017 (GMT -0400)
Ionia

Weather History for KY70 - January, 2013

Change the Weather History Date:

Monday, January 21, 2013

  Actual Average (KGRR) Record (KGRR)
Temperature  
Mean Temperature 12 °F -  
Max Temperature 19 °F 31 °F 61 °F (1906)
Min Temperature 5 °F 16 °F -15 °F (1984)
Degree Days  
Heating Degree Days 53    
Moisture  
Dew Point 0 °F    
Average Humidity 59    
Maximum Humidity 68    
Minimum Humidity 46    
Precipitation  
Precipitation 0.00 in - - ()
Sea Level Pressure  
Sea Level Pressure 30.03 in    
Wind  
Wind Speed 11 mph (WNW)    
Max Wind Speed 22 mph    
Max Gust Speed 29 mph    
Visibility 7 miles    
Events Snow    
Averages and records for this station are not official NWS values.
T = Trace of Precipitation, MM = Missing Value Source: NWS Daily Summary

Daily Weather History Graph

Daily Weather History Graph

Search for Another Location

Airport or City:

Trip Planner

Search our weather history database for the weather conditions in past years. The results will help you decide how hot, cold, wet, or windy it might be!

Date:

Astronomy

Jan. 21, 2013 Rise Set
Actual Time 8:04 AM EST 5:39 PM EST
Civil Twilight 7:33 AM EST 6:09 PM EST
Nautical Twilight 6:59 AM EST 6:44 PM EST
Astronomical Twilight 6:25 AM EST 7:18 PM EST
Moon 1:17 PM EST (1/21) 3:32 AM EST (1/21)
Length of Visible Light 10h 36m
Length of Day
9h 34m
Waxing Gibbous, 75% of the Moon is Illuminated
Jan 21
Waxing Gibbous
Jan 26
Full
Feb 3
Last Quarter
Feb 10
New
Feb 17
First Quarter

Hourly Weather History & Observations

Time (EST) Temp. Windchill Dew Point Humidity Pressure Visibility Wind Dir Wind Speed Gust Speed Precip Events Conditions
12:15 AM 19.4 °F 11.5 °F 8.6 °F 63% 30.11 in 10.0 mi West 5.8 mph - N/A   Overcast
1:20 AM 19.4 °F 14.3 °F 10.4 °F 68% 30.07 in 7.0 mi SW 3.5 mph - N/A   Overcast
8:01 AM 15.8 °F 4.2 °F - N/A% - 7.0 mi West 9.2 mph - N/A   Overcast
9:43 AM - - - N/A% - 7.0 mi NW 11.5 mph 17.3 mph N/A   Overcast
10:19 AM 14.0 °F 2.9 °F - N/A% - 3.0 mi NW 8.1 mph 19.6 mph N/A   Haze
10:26 AM - - - N/A% 30.00 in 5.0 mi NW 10.4 mph - N/A   Haze
10:34 AM 15.8 °F 4.2 °F 5.9 °F 65% 30.00 in 3.0 mi WNW 9.2 mph - N/A   Haze
10:54 AM 14.9 °F 1.6 °F 5.4 °F 66% 30.00 in 2.5 mi NW 11.5 mph 17.3 mph N/A Snow Light Snow
11:14 AM 14.7 °F 0.7 °F 3.9 °F 62% 30.00 in 4.0 mi WNW 12.7 mph 19.6 mph N/A   Haze
11:34 AM 15.8 °F 1.4 °F 2.7 °F 56% 29.99 in 7.0 mi NNW 13.8 mph 21.9 mph N/A   Overcast
11:54 AM 17.6 °F 2.7 °F 2.1 °F 51% 29.98 in 10.0 mi WNW 16.1 mph 21.9 mph N/A   Overcast
12:14 PM 17.1 °F 3.0 °F 2.1 °F 52% 29.98 in 10.0 mi NW 13.8 mph 18.4 mph N/A   Overcast
12:34 PM 16.3 °F 2.7 °F 0.1 °F 49% 29.97 in 10.0 mi NW 12.7 mph 20.7 mph N/A   Overcast
12:54 PM 16.3 °F 1.6 °F -0.6 °F 47% 29.97 in 10.0 mi NW 15.0 mph 26.5 mph N/A   Overcast
1:14 PM 16.5 °F 1.8 °F 0.1 °F 49% 29.96 in 10.0 mi NW 15.0 mph 24.2 mph N/A   Overcast
1:34 PM 15.4 °F 1.0 °F -0.8 °F 49% 29.96 in 7.0 mi WNW 13.8 mph 24.2 mph N/A   Overcast
1:54 PM 14.9 °F -1.3 °F -0.8 °F 50% 29.96 in 4.0 mi West 17.3 mph 28.8 mph N/A   Haze
2:14 PM 14.7 °F -2.9 °F -1.3 °F 49% 29.96 in 10.0 mi WNW 20.7 mph 25.3 mph N/A   Overcast
2:34 PM 14.4 °F -3.8 °F -1.5 °F 50% 29.97 in 10.0 mi WNW 21.9 mph 27.6 mph N/A   Overcast
2:54 PM 14.7 °F -1.6 °F 0.5 °F 53% 29.97 in 7.0 mi WNW 17.3 mph 27.6 mph N/A   Overcast
3:14 PM 14.4 °F -1.0 °F 3.0 °F 61% 29.98 in 1.8 mi WNW 15.0 mph 23.0 mph N/A Snow Light Snow
3:34 PM 13.8 °F -3.7 °F 2.8 °F 62% 29.99 in 2.0 mi NW 19.6 mph 24.2 mph N/A Snow Light Snow
3:54 PM 13.1 °F -4.6 °F 3.6 °F 66% 29.99 in 1.0 mi WNW 19.6 mph 25.3 mph N/A Snow Light Snow
4:14 PM 13.6 °F -1.3 °F -0.8 °F 53% 30.00 in 10.0 mi West 13.8 mph 21.9 mph N/A   Mostly Cloudy
4:34 PM 12.6 °F -5.3 °F 0.9 °F 60% 30.01 in 0.8 mi WNW 19.6 mph 25.3 mph N/A Snow Light Snow
4:54 PM 12.6 °F -3.3 °F -0.0 °F 57% 30.02 in 7.0 mi WNW 15.0 mph 21.9 mph N/A   Overcast
5:14 PM 11.5 °F -4.7 °F -5.8 °F 46% 30.02 in 10.0 mi WNW 15.0 mph - N/A   Mostly Cloudy
5:34 PM 10.8 °F -2.8 °F 2.1 °F 68% 30.03 in 1.8 mi NW 10.4 mph - N/A Snow Light Snow
5:54 PM 10.4 °F -4.8 °F 1.0 °F 66% 30.03 in 2.5 mi WNW 12.7 mph 18.4 mph N/A Snow Light Snow
6:14 PM 9.9 °F -2.2 °F 0.3 °F 65% 30.04 in 7.0 mi WNW 8.1 mph 16.1 mph N/A   Overcast
6:34 PM 9.5 °F -4.4 °F -1.1 °F 62% 30.04 in 10.0 mi WNW 10.4 mph - N/A   Overcast
6:54 PM 9.9 °F -4.7 °F -0.0 °F 64% 30.04 in 7.0 mi WNW 11.5 mph - N/A   Overcast
7:14 PM 9.5 °F -4.4 °F 0.5 °F 67% 30.05 in 4.0 mi WNW 10.4 mph - N/A Snow Light Snow
7:34 PM 8.6 °F -2.6 °F -0.6 °F 66% 30.05 in 10.0 mi NW 6.9 mph - N/A   Mostly Cloudy
7:54 PM 8.4 °F -4.9 °F -0.9 °F 66% 30.06 in 10.0 mi WNW 9.2 mph - N/A   Scattered Clouds
8:14 PM 8.1 °F -4.3 °F -1.5 °F 65% 30.06 in 10.0 mi WNW 8.1 mph - N/A   Clear
8:34 PM 8.1 °F -4.3 °F -2.0 °F 64% 30.06 in 10.0 mi NW 8.1 mph - N/A   Mostly Cloudy
8:54 PM 7.7 °F -5.8 °F -1.7 °F 66% 30.06 in 10.0 mi WNW 9.2 mph - N/A   Overcast
9:14 PM 7.7 °F -3.7 °F -1.1 °F 67% 30.07 in 5.0 mi WNW 6.9 mph - N/A   Haze
9:34 PM 7.5 °F -6.0 °F -1.3 °F 67% 30.07 in 7.0 mi NW 9.2 mph - N/A   Overcast
9:54 PM 7.7 °F -6.6 °F -1.7 °F 66% 30.08 in 7.0 mi NW 10.4 mph 18.4 mph N/A   Overcast
10:14 PM 7.3 °F -7.1 °F -4.2 °F 59% 30.08 in 10.0 mi NW 10.4 mph 19.6 mph N/A   Mostly Cloudy
10:34 PM 7.0 °F -7.5 °F -4.9 °F 58% 30.08 in 10.0 mi NW 10.4 mph - N/A   Scattered Clouds
10:54 PM 6.8 °F -9.3 °F -4.2 °F 61% 30.09 in 10.0 mi NW 12.7 mph 18.4 mph N/A   Mostly Cloudy
11:14 PM 6.4 °F -11.1 °F -4.4 °F 61% 30.10 in 7.0 mi NW 15.0 mph 23.0 mph N/A   Mostly Cloudy
11:34 PM 5.9 °F -12.4 °F -8.5 °F 52% 30.10 in 10.0 mi NW 16.1 mph 24.2 mph N/A   Clear
11:54 PM 5.5 °F -6.3 °F -7.6 °F 55% 30.10 in 10.0 mi WNW 6.9 mph - N/A   Clear